Precipitable_Water
1.16 1.27 1.46 1.32 0.69 0.62 0.50 0.53 0.66 0.56 0.53 0.64 0.65 0.58 0.56 0.63 0.54 0.45 1.05 1.10 1.13 1.18 1.23 1.22 1.23 1.17 1.22 1.14 1.00 0.90 0.81 0.74 0.70 0.70 0.75 0.82 0.84 0.87 0.99 1.03 1.07 1.15 1.24 1.28 1.27 1.22 1.15 1.13 1.22
1.31 1.40 1.40 1.12 0.62 0.48 0.49 0.65 0.64 0.67 0.66 0.69 0.66 0.58 0.51 0.52 0.86 0.85 0.87 1.16 1.20 1.15 1.18 1.20 1.19 1.17 1.07 0.97 0.92 0.82 0.77 0.74 0.72 0.72 0.71 0.71 0.74 0.78 0.82 0.84 0.84 0.88 0.92 0.90 0.86 0.95 0.97 0.97 1.01
1.33 1.46 1.10 0.92 0.73 0.54 0.57 0.70 0.77 0.80 0.80 0.73 0.62 0.71 0.53 0.47 0.77 0.85 1.12 1.21 1.24 1.19 1.21 1.24 1.14 1.08 1.01 0.93 0.91 0.89 0.85 0.86 0.86 0.89 0.91 0.90 0.85 0.81 0.82 0.82 0.82 0.80 0.76 0.73 0.72 0.80 0.91 0.95 0.96
1.27 1.21 1.12 0.81 0.70 0.83 0.83 0.82 0.89 0.81 0.82 0.77 0.70 0.53 0.74 0.95 0.92 1.08 1.24 1.26 1.23 1.22 1.30 1.27 1.20 1.08 0.99 0.96 0.98 1.00 1.02 1.05 1.15 1.22 1.26 1.30 1.37 1.43 1.42 1.33 1.29 1.23 1.13 1.09 1.05 0.99 0.96 0.97 1.04
1.20 1.09 0.77 0.70 0.73 0.85 0.95 0.96 0.93 0.79 0.73 0.64 0.69 0.62 0.68 0.99 1.16 1.18 1.22 1.31 1.23 1.27 1.26 1.25 1.16 1.09 1.11 1.17 1.18 1.24 1.38 1.36 1.42 1.50 1.52 1.76 1.81 1.78 1.72 1.61 1.46 1.42 1.40 1.33 1.35 1.37 1.25 1.03 0.94
0.90 0.98 0.68 0.59 0.69 0.83 0.93 0.96 0.92 0.81 0.70 0.70 0.70 0.73 0.76 1.12 1.11 1.13 1.23 1.28 1.37 1.23 1.21 1.26 1.26 1.25 1.27 1.29 1.43 1.52 1.59 1.60 1.62 1.58 1.65 1.73 1.68 1.58 1.50 1.39 1.31 1.31 1.27 1.24 1.24 1.21 1.13 1.05 1.00
0.78 0.79 0.65 0.67 0.68 0.75 0.85 0.96 0.84 0.82 0.70 0.71 0.81 0.66 0.81 1.02 1.20 1.20 1.28 1.35 1.37 1.28 1.19 1.26 1.31 1.33 1.32 1.40 1.48 1.45 1.50 1.54 1.53 1.51 1.40 1.29 1.25 1.24 1.19 1.12 1.10 1.02 1.03 0.99 0.97 1.00 0.96 0.89 0.85
0.84 0.81 0.65 0.68 0.66 0.67 0.87 0.91 0.92 0.80 0.73 0.90 0.93 0.68 0.69 0.99 1.26 1.25 1.31 1.34 1.32 1.24 1.21 1.27 1.31 1.29 1.36 1.44 1.45 1.57 1.52 1.39 1.29 1.22 1.07 1.04 0.95 0.91 0.93 0.87 0.88 0.88 0.83 0.81 0.80 0.77 0.76 0.77 0.76
0.94 0.65 0.56 0.63 0.69 0.74 0.90 0.84 0.92 0.86 0.80 0.86 0.90 0.87 0.92 1.14 1.26 1.18 1.21 1.28 1.25 1.20 1.23 1.34 1.39 1.40 1.43 1.48 1.51 1.47 1.41 1.22 1.05 0.91 0.82 0.75 0.73 0.75 0.78 0.80 0.78 0.74 0.65 0.58 0.53 0.51 0.48 0.48 0.53
0.71 0.58 0.58 0.76 0.83 0.82 0.88 0.85 0.86 0.79 0.77 0.78 0.84 0.94 1.03 1.14 1.15 1.07 1.07 1.05 1.09 1.07 1.17 1.35 1.45 1.55 1.48 1.46 1.42 1.37 1.29 1.11 0.95 0.73 0.62 0.60 0.60 0.60 0.60 0.58 0.52 0.47 0.46 0.45 0.43 0.40 0.38 0.36 0.36
0.67 0.54 0.69 0.74 0.86 0.89 0.84 0.82 0.88 0.83 0.73 0.78 0.74 0.83 0.98 1.11 1.15 1.09 1.10 1.08 1.06 1.11 1.22 1.38 1.46 1.46 1.47 1.41 1.37 1.30 1.25 1.05 0.88 0.67 0.60 0.51 0.43 0.39 0.36 0.35 0.36 0.37 0.37 0.36 0.36 0.36 0.35 0.34 0.34
0.49 0.67 0.73 0.76 0.82 0.83 0.83 0.85 0.78 0.85 0.85 0.90 0.91 0.92 0.96 1.06 1.08 1.09 1.11 1.13 1.16 1.20 1.24 1.41 1.54 1.60 1.59 1.46 1.24 1.14 1.12 1.04 0.81 0.63 0.54 0.46 0.39 0.36 0.36 0.36 0.37 0.37 0.37 0.36 0.37 0.37 0.37 0.36 0.36
0.45 0.60 0.74 0.81 0.81 0.83 0.84 0.80 0.75 0.81 0.89 0.90 0.92 0.94 0.89 1.02 1.11 1.18 1.24 1.27 1.29 1.26 1.34 1.43 1.53 1.52 1.67 1.53 1.21 1.07 0.98 0.95 0.73 0.58 0.51 0.45 0.39 0.38 0.39 0.38 0.39 0.39 0.40 0.40 0.39 0.39 0.39 0.39 0.38
0.47 0.56 0.70 0.80 0.75 0.81 0.76 0.78 0.77 0.71 0.80 0.83 0.86 0.86 0.88 1.01 1.08 1.18 1.25 1.25 1.29 1.36 1.39 1.54 1.56 1.58 1.59 1.52 1.35 1.12 0.92 0.81 0.61 0.53 0.49 0.44 0.41 0.41 0.40 0.41 0.41 0.42 0.43 0.43 0.42 0.41 0.41 0.41 0.41
0.48 0.46 0.62 0.70 0.75 0.73 0.81 0.68 0.70 0.81 0.79 0.80 0.84 0.87 0.94 1.03 1.13 1.14 1.21 1.22 1.31 1.39 1.46 1.50 1.55 1.62 1.63 1.50 1.29 1.15 0.91 0.73 0.57 0.52 0.47 0.45 0.45 0.44 0.43 0.43 0.43 0.44 0.44 0.43 0.42 0.41 0.42 0.42 0.43
0.41 0.49 0.40 0.59 0.70 0.73 0.75 0.56 0.73 0.83 0.82 0.83 0.94 0.97 0.97 1.05 1.11 1.20 1.25 1.29 1.39 1.47 1.45 1.54 1.65 1.60 1.51 1.39 1.29 1.02 0.84 0.66 0.57 0.53 0.50 0.50 0.48 0.47 0.45 0.44 0.43 0.44 0.42 0.41 0.41 0.41 0.41 0.42 0.43
0.40 0.26 0.33 0.46 0.69 0.71 0.69 0.59 0.70 0.82 0.80 0.82 0.89 0.96 0.99 1.07 1.13 1.23 1.31 1.37 1.42 1.53 1.55 1.51 1.54 1.48 1.45 1.36 1.07 0.87 0.75 0.61 0.56 0.53 0.52 0.51 0.49 0.48 0.46 0.44 0.44 0.44 0.42 0.42 0.41 0.42 0.43 0.42 0.43
0.30 0.31 0.38 0.38 0.54 0.66 0.64 0.65 0.74 0.77 0.75 0.75 0.82 0.91 0.96 1.01 1.10 1.21 1.28 1.34 1.44 1.47 1.52 1.47 1.42 1.35 1.34 1.01 0.88 0.77 0.66 0.57 0.55 0.52 0.51 0.49 0.48 0.47 0.45 0.43 0.43 0.44 0.43 0.42 0.43 0.44 0.46 0.46 0.46
0.45 0.41 0.40 0.48 0.55 0.57 0.61 0.65 0.70 0.77 0.80 0.76 0.77 0.81 0.88 0.99 1.14 1.25 1.28 1.36 1.37 1.38 1.40 1.32 1.30 1.31 1.11 0.87 0.78 0.65 0.56 0.52 0.51 0.51 0.50 0.47 0.47 0.45 0.45 0.45 0.47 0.50 0.48 0.47 0.49 0.49 0.48 0.48 0.50
0.46 0.43 0.42 0.51 0.59 0.55 0.57 0.60 0.73 0.77 0.78 0.81 0.81 0.80 0.83 0.85 0.95 1.07 1.12 1.18 1.12 1.24 1.29 1.26 1.21 1.16 0.92 0.84 0.70 0.58 0.53 0.50 0.50 0.50 0.48 0.47 0.47 0.49 0.51 0.51 0.51 0.52 0.51 0.50 0.50 0.49 0.47 0.48 0.49
0.43 0.43 0.47 0.46 0.54 0.56 0.51 0.46 0.57 0.69 0.75 0.80 0.81 0.82 0.86 0.86 0.84 0.92 0.96 0.97 0.93 0.97 1.11 1.16 1.13 0.98 0.84 0.73 0.61 0.54 0.52 0.51 0.50 0.50 0.48 0.50 0.52 0.53 0.52 0.52 0.51 0.50 0.51 0.49 0.49 0.49 0.47 0.43 0.44
0.41 0.61 0.56 0.54 0.46 0.35 0.51 0.29 0.42 0.50 0.52 0.58 0.64 0.69 0.73 0.75 0.78 0.79 0.85 0.83 0.85 0.95 1.07 1.09 1.01 0.87 0.73 0.62 0.53 0.48 0.47 0.46 0.49 0.49 0.50 0.51 0.53 0.52 0.52 0.51 0.51 0.51 0.51 0.51 0.50 0.49 0.46 0.44 0.39
0.40 0.59 0.49 0.54 0.50 0.47 0.42 0.37 0.36 0.41 0.41 0.47 0.53 0.63 0.69 0.68 0.66 0.68 0.79 0.82 0.80 0.95 1.01 1.02 0.88 0.71 0.61 0.55 0.52 0.50 0.49 0.51 0.53 0.53 0.52 0.52 0.53 0.53 0.52 0.51 0.51 0.50 0.51 0.51 0.49 0.48 0.46 0.44 0.41
0.58 0.58 0.59 0.55 0.47 0.34 0.41 0.41 0.37 0.39 0.42 0.47 0.56 0.59 0.62 0.63 0.64 0.61 0.63 0.68 0.76 0.89 0.93 0.85 0.70 0.61 0.57 0.54 0.53 0.52 0.51 0.50 0.49 0.49 0.49 0.50 0.51 0.52 0.53 0.54 0.54 0.53 0.51 0.50 0.50 0.49 0.47 0.45 0.43
0.60 0.52 0.41 0.37 0.34 0.29 0.37 0.38 0.40 0.48 0.51 0.52 0.50 0.54 0.56 0.52 0.50 0.50 0.48 0.52 0.67 0.78 0.77 0.67 0.61 0.56 0.55 0.53 0.52 0.51 0.49 0.48 0.46 0.47 0.47 0.48 0.49 0.50 0.51 0.51 0.51 0.50 0.50 0.49 0.48 0.46 0.45 0.42 0.39
0.46 0.50 0.38 0.27 0.28 0.31 0.38 0.33 0.40 0.54 0.61 0.57 0.52 0.50 0.49 0.47 0.47 0.46 0.45 0.52 0.65 0.71 0.64 0.61 0.58 0.55 0.54 0.52 0.49 0.47 0.46 0.47 0.48 0.50 0.51 0.51 0.49 0.48 0.49 0.48 0.48 0.46 0.45 0.44 0.43 0.40 0.38 0.37 0.35
0.44 0.41 0.52 0.38 0.37 0.34 0.35 0.37 0.43 0.49 0.49 0.49 0.50 0.49 0.45 0.45 0.46 0.43 0.46 0.54 0.61 0.59 0.58 0.57 0.55 0.53 0.51 0.47 0.47 0.47 0.49 0.49 0.48 0.46 0.42 0.41 0.43 0.44 0.44 0.43 0.42 0.42 0.41 0.39 0.37 0.34 0.32 0.31 0.30
0.49 0.55 0.44 0.48 0.30 0.26 0.30 0.34 0.36 0.40 0.42 0.43 0.42 0.44 0.45 0.46 0.45 0.42 0.45 0.50 0.53 0.55 0.56 0.53 0.50 0.47 0.46 0.45 0.45 0.45 0.44 0.41 0.40 0.41 0.41 0.42 0.43 0.43 0.42 0.41 0.39 0.37 0.35 0.33 0.31 0.30 0.30 0.29 0.29
0.43 0.45 0.49 0.54 0.48 0.34 0.27 0.29 0.37 0.36 0.39 0.40 0.44 0.46 0.46 0.45 0.42 0.43 0.45 0.49 0.51 0.53 0.50 0.46 0.43 0.43 0.42 0.42 0.40 0.39 0.40 0.41 0.42 0.43 0.44 0.45 0.44 0.41 0.38 0.36 0.34 0.32 0.31 0.31 0.30 0.30 0.29 0.28 0.28
0.53 0.46 0.50 0.44 0.36 0.35 0.34 0.33 0.42 0.41 0.42 0.43 0.43 0.45 0.44 0.42 0.42 0.44 0.46 0.48 0.48 0.45 0.42 0.40 0.41 0.39 0.38 0.40 0.40 0.40 0.41 0.43 0.43 0.44 0.45 0.43 0.39 0.36 0.34 0.33 0.32 0.32 0.31 0.31 0.30 0.28 0.28 0.27 0.26
Wind_Speed
10 10 10 9 8 7 9 8 6 5 5 6 5 5 5 4 4 5 3 3 4 4 3 3 2 2 2 2 2 1 1 1 1 1 1 1 1 2 2 3 4 5 5 6 7 7 8 9 9
11 11 10 10 8 8 10 9 8 7 5 3 3 3 4 5 4 3 3 4 4 4 3 3 3 2 2 2 2 1 1 1 1 1 1 1 1 2 2 3 4 4 5 6 6 7 7 8 8
13 12 12 11 10 11 10 10 9 7 7 6 4 3 4 4 3 5 4 4 4 4 4 3 3 3 3 2 2 2 2 2 1 1 1 2 2 2 2 3 3 4 5 6 6 7 7 8 8
14 13 13 13 14 12 11 10 10 8 8 7 5 3 4 6 5 5 5 5 5 5 5 4 4 4 3 3 2 2 2 2 1 1 2 2 2 2 2 2 3 4 5 5 6 7 7 7 8
16 15 15 14 15 13 13 11 12 10 8 8 7 7 5 5 5 5 5 5 5 5 5 5 4 4 4 3 2 2 2 2 2 2 2 2 1 0 2 3 4 5 5 6 6 6 7 8 8
18 16 15 17 16 15 14 14 13 12 10 9 7 6 7 6 5 6 5 5 5 5 5 5 4 4 4 4 3 3 2 3 3 3 2 3 4 5 6 6 6 6 7 7 7 7 8 8 8
20 19 19 18 17 16 16 15 15 14 11 11 9 7 7 8 7 6 6 5 5 5 5 5 5 5 4 4 4 4 4 4 5 5 6 7 8 8 8 8 8 8 8 8 8 8 9 9 9
22 21 20 20 18 18 16 16 16 14 14 10 10 9 9 9 8 6 6 6 6 6 6 5 5 4 4 5 5 4 5 6 7 8 8 8 8 9 9 9 9 8 8 8 9 9 9 9 9
24 22 23 22 19 18 16 17 16 15 13 13 13 10 9 9 7 6 6 7 7 7 7 6 6 5 4 4 4 5 6 7 7 8 8 9 8 8 8 8 9 8 8 8 9 9 9 10 10
26 26 26 22 21 19 19 19 19 16 15 15 13 11 9 10 9 7 7 7 8 8 8 7 6 6 4 4 5 6 7 7 8 8 8 9 9 9 9 9 9 8 8 8 8 8 9 10 10
29 29 26 24 22 21 20 20 21 19 19 18 17 14 13 12 10 9 9 8 8 8 8 9 8 7 7 6 6 7 8 8 9 9 9 9 9 9 9 9 8 8 8 7 8 8 9 10 11
30 31 27 26 24 21 21 20 21 23 21 19 17 17 15 14 12 11 10 10 9 9 10 11 11 11 10 9 8 9 10 10 10 10 10 10 10 10 9 9 8 8 8 9 9 10 11 11 12
32 29 29 27 26 25 22 22 22 23 21 19 18 18 18 16 14 12 12 11 11 11 12 12 12 12 12 11 10 10 11 11 11 11 11 11 11 11 10 10 9 10 10 10 11 12 13 13 14
30 32 29 29 27 26 24 22 21 20 20 19 19 20 19 18 15 13 13 13 13 13 13 13 14 14 13 13 12 13 12 12 12 12 12 12 12 11 11 11 11 12 13 13 14 14 15 15 16
32 29 29 30 28 27 25 24 23 21 20 19 19 19 19 18 17 16 15 15 14 14 15 15 14 14 14 14 15 15 15 14 14 14 13 13 13 13 13 13 14 14 14 15 16 16 17 18 18
30 30 29 31 28 26 26 27 24 21 21 21 21 20 19 19 19 18 17 16 16 16 16 16 16 15 15 16 16 16 16 15 15 15 15 15 14 14 14 15 15 16 17 17 18 19 20 21 22
30 30 30 28 30 26 26 24 24 23 22 23 22 21 20 20 19 19 19 19 18 18 18 18 16 16 16 16 17 17 16 16 16 15 15 15 15 15 16 17 18 18 19 20 21 22 23 24 25
28 27 26 28 28 27 26 25 24 22 22 23 23 22 21 21 21 19 18 18 18 18 18 18 17 16 15 16 16 17 17 17 16 16 16 17 17 18 18 19 20 21 22 23 24 25 26 27 28
27 26 25 25 26 25 28 26 25 25 24 24 24 23 22 22 20 20 20 20 19 18 18 18 17 16 16 16 16 17 17 17 18 18 18 19 19 20 20 21 22 23 24 25 27 28 29 30 32
27 25 25 22 22 23 25 27 26 25 24 24 23 22 22 21 21 20 20 19 19 19 19 19 18 17 17 17 17 18 18 19 19 19 20 21 21 22 23 24 25 26 27 28 30 31 32 33 34
28 24 22 22 20 19 20 22 23 24 24 23 22 22 22 22 21 20 19 18 18 19 19 19 18 18 17 18 19 18 18 19 20 21 22 23 24 25 26 27 28 29 30 31 33 34 34 35 35
25 23 20 20 18 20 18 20 21 22 24 24 23 22 21 21 20 19 19 19 19 18 18 19 19 19 19 20 20 19 19 20 21 22 23 24 26 27 28 30 31 33 34 35 36 36 37 37 38
23 19 19 17 16 16 17 17 20 18 21 23 22 21 20 19 19 20 20 20 19 19 19 19 19 19 20 20 21 20 21 22 23 24 24 25 27 29 31 32 34 35 36 37 38 39 40 41 42
21 14 12 13 14 17 18 18 17 18 18 16 19 20 19 18 18 17 18 18 19 19 19 19 20 20 21 21 22 22 23 24 24 25 27 28 29 31 33 34 35 36 37 39 40 42 43 45 46
17 14 9 10 14 17 13 17 20 13 13 14 16 17 16 16 16 16 16 17 18 18 18 19 20 20 21 22 23 24 25 26 27 28 29 31 32 34 34 35 37 38 40 42 43 45 46 47 48
16 17 13 12 12 13 11 15 15 13 15 14 13 14 15 14 14 15 15 14 15 16 17 18 19 20 21 22 23 24 26 27 28 30 31 32 33 35 37 38 40 42 43 45 46 47 48 49 51
15 15 13 9 8 8 12 14 11 10 11 11 12 13 12 12 13 12 12 13 14 15 17 18 19 20 20 21 22 23 26 28 30 31 33 35 36 38 40 42 43 45 46 47 48 49 50 51 52
13 16 12 9 8 9 9 11 13 11 14 12 12 13 13 12 12 11 11 12 13 14 16 17 18 19 20 22 24 26 28 30 32 34 36 38 40 42 43 44 45 46 47 48 49 50 51 52 53
9 10 8 9 10 9 9 10 9 10 13 14 14 14 13 12 12 12 11 12 13 14 16 17 18 20 22 24 26 29 31 33 35 37 39 41 43 44 44 45 46 48 49 50 51 51 52 52 52
9 10 10 10 10 10 7 9 8 10 11 12 13 13 13 12 12 12 13 13 14 15 16 18 20 22 24 27 29 31 34 36 38 40 42 43 44 44 46 47 48 49 50 50 50 50 49 49 48
Wind_Direction
247 236 237 244 241 242 248 246 243 234 248 253 244 242 237 261 255 264 235 239 197 198 208 215 232 253 272 290 302 283 277 275 276 286 298 301 319 331 336 340 346 354 1 4 4 4 5 7 9
241 234 239 239 234 241 248 238 237 234 229 209 233 251 259 263 262 239 215 219 202 206 214 229 236 246 268 276 289 267 256 259 265 279 293 295 306 317 323 331 338 340 341 344 348 352 355 357 359
237 237 237 235 235 234 239 237 233 233 216 245 251 265 243 237 259 210 247 209 210 220 226 233 237 246 263 269 272 259 251 255 261 269 283 290 299 308 319 329 336 340 342 346 348 349 349 349 350
235 240 242 236 238 241 239 241 225 216 242 245 238 255 258 266 232 244 216 218 228 236 237 240 245 249 254 256 259 257 247 240 246 272 287 290 290 303 318 335 339 342 341 343 346 349 351 350 348
238 240 240 241 243 244 244 245 221 223 236 236 238 241 258 257 257 224 219 229 235 248 243 244 244 243 244 246 248 242 239 247 260 278 290 295 251 305 328 330 326 325 330 335 338 340 344 345 343
239 238 240 240 243 243 247 238 224 229 235 235 241 238 249 248 235 224 227 234 244 246 243 243 244 243 244 243 242 243 249 258 267 274 270 276 283 289 292 296 303 306 309 314 317 322 328 332 334
235 237 240 240 243 247 244 231 227 229 232 240 232 239 256 244 236 228 234 242 250 249 249 245 243 243 242 243 248 251 257 269 274 274 278 280 283 282 284 289 291 297 300 303 307 311 316 321 324
236 238 239 240 239 245 241 230 227 228 236 237 232 243 250 238 224 231 238 246 252 251 248 244 238 235 248 249 249 253 270 276 279 280 281 281 284 284 281 285 290 293 296 299 302 306 310 313 317
235 239 238 238 234 241 237 232 234 234 230 235 233 242 256 214 219 231 237 245 251 247 244 244 234 238 250 250 250 268 281 284 284 284 283 283 284 283 283 285 288 291 293 296 299 303 307 308 310
234 236 237 237 237 238 241 237 230 231 231 236 237 246 232 213 219 226 234 241 243 242 242 234 233 232 245 263 270 281 288 288 289 286 283 284 283 283 283 283 285 288 290 295 299 304 307 309 310
236 238 238 238 239 241 243 244 235 230 235 236 233 234 227 220 228 234 238 241 240 237 240 233 234 242 252 264 273 286 290 292 291 287 284 284 283 281 280 281 283 284 287 292 298 303 307 309 309
239 238 235 237 236 239 241 243 238 234 237 238 237 229 226 226 232 236 239 244 243 241 241 242 244 249 255 261 272 286 289 290 290 285 283 283 282 280 279 278 278 280 284 289 295 300 304 307 308
237 238 234 235 234 235 242 243 240 235 242 240 234 227 227 228 234 241 246 247 243 246 247 247 248 251 254 259 273 287 291 288 287 283 282 281 279 276 274 273 275 278 282 287 291 296 299 303 306
237 233 234 233 234 234 236 241 238 237 241 234 231 228 229 230 235 245 248 250 248 250 250 248 249 252 255 258 269 282 288 286 286 283 281 280 276 274 272 273 275 279 283 286 288 291 294 297 301
233 232 234 232 231 234 233 240 238 240 237 234 233 231 232 234 241 246 250 250 249 250 250 251 251 254 253 259 270 278 284 284 284 283 280 278 275 274 273 275 277 279 282 285 287 289 292 294 298
226 227 230 230 225 231 228 237 237 238 232 232 235 235 237 241 245 251 252 253 251 253 254 254 254 253 256 263 269 278 280 281 283 281 279 277 275 274 275 276 277 280 282 284 286 289 291 293 295
227 227 227 230 227 228 228 235 234 236 234 234 235 238 240 243 249 254 255 255 252 255 255 251 254 255 255 264 274 277 278 280 280 279 278 277 275 275 276 277 278 281 283 285 286 288 290 292 293
222 220 225 224 225 227 231 234 237 236 237 237 239 241 243 244 251 254 258 257 258 260 255 251 253 253 258 270 275 277 277 278 278 278 277 276 275 276 277 278 280 282 284 284 286 288 290 291 292
223 219 221 226 225 225 230 234 235 238 241 243 243 243 245 251 255 258 259 259 259 256 251 249 251 255 260 269 274 277 275 276 277 277 278 278 277 277 277 279 281 283 284 285 286 289 290 291 293
223 221 220 225 225 226 230 237 238 239 242 241 244 244 245 250 256 256 258 258 254 252 250 249 251 253 261 268 276 280 276 276 278 278 279 278 277 277 279 281 283 284 285 285 287 288 290 291 293
217 217 215 220 223 227 229 241 235 239 240 243 243 245 249 252 255 256 253 252 254 251 247 248 249 255 262 270 277 280 277 279 279 279 279 279 279 279 280 282 283 284 285 286 287 288 289 290 292
213 212 213 217 220 229 233 241 241 240 242 243 244 247 248 253 254 253 251 253 255 250 246 247 251 257 265 271 276 276 276 279 280 280 281 282 281 282 283 283 284 285 286 286 287 288 289 289 289
211 214 214 217 220 229 233 239 243 241 246 244 242 244 247 253 254 254 253 253 253 247 246 248 253 260 267 271 274 275 277 280 283 283 284 284 285 285 285 285 286 287 287 287 287 288 288 288 288
196 199 213 217 222 234 230 229 244 236 241 245 240 243 247 254 257 254 252 252 251 247 247 250 255 262 268 272 274 276 278 281 283 284 285 286 287 288 289 289 288 288 288 288 288 288 288 288 288
195 195 205 213 222 227 232 228 237 239 240 242 237 237 247 251 249 250 253 253 247 244 246 252 258 265 271 274 276 278 280 282 284 285 287 288 289 289 289 289 289 289 289 289 289 289 289 289 289
200 200 201 213 217 227 226 235 239 238 246 250 238 241 245 247 248 252 253 248 242 244 249 256 263 269 273 276 278 280 282 284 287 289 289 290 290 290 291 291 291 291 291 291 290 290 290 289 289
197 203 206 208 226 227 232 245 245 238 241 239 238 236 238 244 250 248 247 245 245 250 256 262 267 272 276 278 281 284 286 289 290 291 292 292 292 292 292 292 292 292 292 292 292 291 291 290 290
199 196 203 219 218 235 246 245 241 239 234 234 233 231 238 247 247 244 247 248 254 257 262 268 272 275 278 282 285 288 290 292 292 293 294 294 294 294 294 294 294 293 293 293 293 292 292 291 291
188 201 203 207 221 231 248 243 234 241 233 231 235 236 237 240 241 246 252 257 260 265 270 273 276 280 283 287 289 291 292 294 295 295 295 296 296 296 295 295 295 295 295 294 294 293 293 292 291
203 206 199 201 214 227 226 246 250 260 245 232 232 234 237 241 244 251 257 261 267 271 274 278 282 286 289 291 293 294 295 296 296 297 297 297 297 296 296 296 296 296 295 295 295 294 294 293 292